Regional Weather Roundup
Issued by NWS

Home | Current Version | Previous Version | Graphics & Text | Print | Product List | Glossary On
Versions: 1 2 3 4 5 6 7 8 9 10 11 12 13 14 15 16 17 18 19 20 21 22 23 24 25 26 27 28 29 30 31 32 33 34 35 36 37 38 39 40 41 42 43 44 45 46 47 48 49 50
000
ASUS44 KMEG 290200
RWRTN
TENNESSEE HOURLY STATE WEATHER ROUNDUP
NATIONAL WEATHER SERVICE MEMPHIS TN
900 PM CDT THU AUG 28 2014

TNZ002-004-019-021-049-052-054-088>092-290300-
WEST TENNESSEE

CITY           SKY/WX    TMP DP  RH WIND       PRES   REMARKS
MEMPHIS INTL   PTCLDY    87  68  52 E3        29.96R HX  90
NWS MEMPHIS      N/A     81 N/A N/A MISG        N/A
JACKSON        CLEAR     77  71  82 CALM      29.97R
DYERSBURG      CLEAR     79  66  65 E5        29.98R
UNION CITY     CLEAR     73  70  88 NE3       29.98R
PARIS          CLEAR     72  70  94 CALM      30.01R
LEXINGTON      CLEAR     75  72  88 CALM      29.97S
SAVANNAH       CLEAR     75  73  94 CALM      29.99R
$$

TNZ008-025-027-028-033-062-065-066-290300-
NORTH MIDDLE TENNESSEE

CITY           SKY/WX    TMP DP  RH WIND       PRES   REMARKS
NASHVILLE      MOCLDY    78  72  81 W6        30.01R
CLARKSVILLE    CLOUDY    76  72  87 CALM      30.00S
CROSSVILLE     MOCLDY    74  69  85 CALM      30.10S
$$

TNZ061-075-076-078-094-096-097-290300-
SOUTH MIDDLE TENNESSEE

CITY           SKY/WX    TMP DP  RH WIND       PRES   REMARKS
FAYETTEVILLE   CLEAR     73  66  78 SE3       30.02S
TULLAHOMA      CLEAR     75  68  78 CALM      30.04S
WINCHESTER     CLEAR     75  72  88 CALM      30.03S
COLUMBIA         N/A     79  75  89 CALM      29.99S
SHELBYVILLE    CLEAR     79  73  83 CALM      30.02S
$$

TNZ017-018-042-046-047-290300-
NORTHEAST TENNESSEE

CITY           SKY/WX    TMP DP  RH WIND       PRES   REMARKS
TRI CITIES     PTCLDY    76  68  76 CALM      30.09R
ELIZABETHTON   CLEAR     70  64  83 CALM      30.10R
$$

TNZ012-013-036-069-073-074-290300-
CENTRAL EAST TENNESSEE

CITY           SKY/WX    TMP DP  RH WIND       PRES   REMARKS
KNOXVILLE      PTCLDY    79  70  74 CALM      30.03R
OAK RIDGE      CLEAR     78  72  81 CALM      30.05R
GATLINBURG     CLEAR     75  68  78 CALM      30.04S
$$

TNZ083-085-099-290300-
SOUTHEAST TENNESSEE

CITY           SKY/WX    TMP DP  RH WIND       PRES   REMARKS
CHATTANOOGA    PTCLDY    79  69  71 N3        30.02R
$$

SKY/WX REPORTED AS FAIR MEANS FEW OR NO CLOUDS BELOW
12 THOUSAND FEET.




USA.gov is the U.S. government's official web portal to all federal, state and local government web resources and services.